Location: Newark
(43.9494°N, 6.8108°E)
Time: 00:45:52
(UTC+00:00)

OTV 5 (USA 277) - Pass Details

Date: 30 September 2019
Orbit: 310 x 324 km, 54.5° (Epoch: 17 October)

Event Time Altitude Azimuth Distance (km) Brightness Sun altitude
Rises 04:51:28 0° 205° (SSW) 2,061 ? -7.5°
Reaches altitude 10° 04:53:37 10° 191° (S) 1,233 ? -7.1°
Maximum altitude 04:55:55 24° 133° (SE) 716 ? -6.7°
Drops below altitude 10° 04:58:14 10° 76° (ENE) 1,238 ? -6.3°
Sets 05:00:24 0° 62° (ENE) 2,073 ? -5.9°
